Regional Weather Roundup
Issued by NWS Newport/Morehead, NC

Current Version | Previous Version | Graphics & Text | Print | Product List | Glossary Off
Versions: 1 2 3 4 5 6 7 8 9 10 11 12 13 14 15 16 17 18 19 20 21 22 23 24 25 26 27 28 29 30 31 32 33 34 35 36 37 38 39 40 41 42 43 44 45 46 47 48 49 50

000
ASUS42 KMHX 302113
RWRMHX
WEATHER ROUNDUP FOR EASTERN NORTH CAROLINA
NATIONAL WEATHER SERVICE NEWPORT/MOREHEAD CITY NC
500 PM EDT FRI SEP 30 2016

NOTE: "FAIR" INDICATES FEW OR NO CLOUDS BELOW 12,000 FEET
WITH NO SIGNIFICANT WEATHER AND/OR OBSTRUCTIONS TO VISIBILITY

NCZ015>017-031-032-045>047-102-103-302200-
NORTH COAST

CITY           SKY/WX    TMP DP  RH WIND       PRES   REMARKS
EDENTON        CLOUDY    80  79  98 SE6       30.01F
ELIZABETH CITY CLOUDY    78  74  87 SE3       30.02R
KITTY HAWK     CLOUDY    80  76  90 SE10G17   30.01F
MANTEO         CLOUDY    78  74  87 SE10      30.02F

$$

NCZ045>047-081-094-103-104-302200-
CENTRAL COAST

CITY           SKY/WX    TMP DP  RH WIND       PRES   REMARKS
FRISCO         LGT RAIN  75  71  87 W12G24    30.04R

$$

NCZ095-097-098-100-101-302200-
SOUTHERN COAST

CITY           SKY/WX    TMP DP  RH WIND       PRES   REMARKS
BEAUFORT       CLOUDY    76  72  87 SE9       30.00S
CEDAR ISLAND   NOT AVBL
JACKSONVILLE   CLOUDY    78  72  81 SE7       29.98S
PINEY ISLAND   NOT AVBL
WILMINGTON     CLOUDY    78  73  84 E9        29.98S


$$

NCZ011>013-027>030-043-044-078>080-089-090>093-098-302200-
COASTAL PLAIN

CITY           SKY/WX    TMP DP  RH WIND       PRES   REMARKS
AHOSKIE        CLOUDY    76  75  95 E3        30.00S
CLINTON        HVY RAIN  78  75  91 SW13G20   29.99R
ELIZABETHTOWN  LGT RAIN  70  68  95 CALM      29.97R
GOLDSBORO      CLOUDY    79  74  84 SE8       29.96S
GREENVILLE     MOSUNNY   81  72  74 SE9       30.00S
HAVELOCK       CLOUDY    75  73  93 SE9       30.01R
KENANSVILLE    CLOUDY    77  70  78 SE6       29.98R
KINSTON        CLOUDY    81  72  74 SE6       29.98F
NEW BERN       CLOUDY    76  72  87 S3        30.00S
RICHLANDS      PTSUNNY   77  72  84 SE7       29.99S
ROCKY MOUNT    CLOUDY    79  71  76 VRB7      29.98F
WASHINGTON     CLOUDY    76  72  85 SE7       30.00F
WHITEVILLE     NOT AVBL

$$

AMZ130-135-150-152-154-156-158-170-250-252-270-ANZ085-086-088-633-658-670-302200-
MARINE OBSERVATIONS

STATION/POSITION TIME  TEMP    WIND        PRES    WAVE   SWELL
                       AIR SEA DIR/SP/G            HT/PER HT/PER
                 (UTC) (F)     (DEG/KT/KT) (MB)    (FT/S) (FT/S)
CHESAPEAKE LIGHT NOT AVBL
64 E VA BEACH    2050   76 75  110/  8/  8 1017.2    6/11   7/11
DUCK             2048   77 77  130/ 16/ 18 1015.6
2 E DUCK         2041      76                N/A     5/11   2/11
OREGON INLET     2048   78 78  130/ 10/ 15 1016.8
13E OREGON INLT  2100      76                N/A     5/10   5/10
HATTERAS CG      2048   74 79  220/  9/ 12 1017.0
DIAMOND BUOY     2050   76 77  250/ 19/ 27 1017.1    4/10   3/10
CAPE LOOKOUT     2000   75      80/ 12/ 12 1016.0
BEAUFORT LAB     2048   75 77  110/ 10/ 13 1015.4
30 SE NEW RVR IN 2008   78 82  100/  6/ 10 1015.7
30 SE NEW RVR IN 2055      82                N/A     4/ 5   2/11
27 SE WRIGHTSVLE 2008   79 81   80/ 10/ 16 1015.0
5 SE WRIGHTSVLE  2008   77 80  120/ 12/ 16 1016.4
225 S CAPE HAT   2050   82 83  180/ 10/ 12 1018.2    4/ 5   3/ 5
41 SE CHARLESTON 2050   82 83  200/ 10/ 14 1014.6    3/ 6   2/ 6

$$




USA.gov is the U.S. government's official web portal to all federal, state and local government web resources and services.